sim
Sign-in with your pilot id or email,
or register
Callsign
Passwort

Schedule Details

Flight Number: RYR5476 (1)
Departure: Madrid Barajas Airport (LEMD) at 12:45
Arrival: Fuerteventura Airport (GCFV) at 15:30
Route: Ryanair Passenger Schedule. Enter filed route here before submitting Pirep.

Weather Information
Getting current METAR information for LEMD 212130Z 03005KT 340V080 9999 BKN045 11/05 Q1009 NOSIG
Getting current METAR information for GCFV 212130Z 34010KT 300V360 9999 SCT029 19/13 Q1015

Schedule Frequency

Route Map